C/2024 B1 ( Lemmon )

Japanese version
Home page
Updated on November 27, 2024

---------------------------------------------------------------------

* Profile

Discovery Date January 16, 2024
Magnitude 20.6 mag
Discoverer Mt. Lemmon Survey

* Pictures

* Orbital Elements

Epoch 2024 Oct. 17.0 TT = JDT 2460600.5
T 2024 Oct. 7.70054 TT                                  Rudenko
q   1.6336999            (2000.0)            P               Q
z  -0.0004990      Peri.   66.20801     -0.21835898     -0.30127793
 +/-0.0000040      Node    79.18816     +0.07113327     -0.95353406
e   1.0008152      Incl.   70.90411     +0.97327253     +0.00209731
From 118 observations 2023 Oct. 13-2024 Nov. 11, mean residual 0".8.

* Finding Charts

* Magnitudes Graph

        m1 = 8.5 + 5 log d + 16.0 log r

---------------------------------------------------------------------

The orbital elements are published on M.P.E.C. 2024-V192.
The charts are made with StellaNavigator Ver.11 (AstroArts).
The magnitudes graphs are made with Comet for Windows.

---------------------------------------------------------------------

Copyright(C) Seiichi Yoshida (comet@aerith.net). All rights reserved.